Retour au catalogue

STARLINK-11673

ActifCommunicationsVLEO
NORAD 64318·PAYLOAD·🇺🇸 United States

Lancé Jun 10, 2025 depuis Cape Canaveral Space Force Station

Loading…

Prochains Passages (prochaines 24 heures)

TLE

FraisSource: CelesTrak SupGP

Époque: Sep 14, 2026, 22:54 UTC

1 64318C 25124B   26257.95465278 -.00080204  00000+0 -62300-3 0  2570
2 64318  43.0001 328.3805 0001682 259.6373   3.7515 15.70875838    17

Suivez STARLINK-11673 en temps réel avec AllMySat

Download on the App Store